Time,TemperatureF,DewpointF,PressureIn,WindDirection,WindDirectionDegrees,WindSpeedMPH,WindSpeedGustMPH,Humidity,HourlyPrecipIn,Conditions,Clouds,dailyrainin,SoftwareType,DateUTC
2013-01-12 00:03:00,52.7,36.0,29.74,North,1,0.0,0.0,53,0.00,CLR,OVC,0.00,WeatherDisplay:10.37,2013-01-12 06:03:00,
2013-01-12 00:08:00,52.0,34.4,29.75,North,1,0.0,0.0,51,0.00,CLR,OVC,0.00,WeatherDisplay:10.37,2013-01-12 06:08:00,
2013-01-12 00:13:00,51.8,33.7,29.75,North,1,0.0,0.0,50,0.00,CLR,OVC,0.00,WeatherDisplay:10.37,2013-01-12 06:13:00,
2013-01-12 00:18:00,51.1,33.1,29.75,North,1,0.0,0.0,50,0.00,CLR,OVC,0.00,WeatherDisplay:10.37,2013-01-12 06:18:00,
2013-01-12 00:23:00,50.9,32.4,29.75,North,1,0.0,0.0,49,0.00,CLR,OVC,0.00,WeatherDisplay:10.37,2013-01-12 06:23:00,
2013-01-12 00:28:00,50.4,31.9,29.75,North,1,0.0,0.0,49,0.00,CLR,OVC,0.00,WeatherDisplay:10.37,2013-01-12 06:28:00,
2013-01-12 00:33:00,49.8,31.4,29.76,North,1,0.0,0.0,49,0.00,CLR,OVC,0.00,WeatherDisplay:10.37,2013-01-12 06:33:00,
2013-01-12 00:38:00,49.6,31.2,29.77,North,1,0.0,0.0,49,0.00,CLR,OVC,0.00,WeatherDisplay:10.37,2013-01-12 06:38:00,
2013-01-12 00:43:00,48.9,31.1,29.77,North,1,0.0,0.0,50,0.00,CLR,OVC,0.00,WeatherDisplay:10.37,2013-01-12 06:43:00,
2013-01-12 00:48:00,48.7,30.4,29.78,North,1,0.0,0.0,49,0.00,CLR,OVC,0.00,WeatherDisplay:10.37,2013-01-12 06:48:00,
2013-01-12 00:53:00,48.7,30.4,29.78,North,1,0.0,0.0,49,0.00,CLR,OVC,0.00,WeatherDisplay:10.37,2013-01-12 06:53:00,
2013-01-12 00:58:00,47.8,29.6,29.78,North,1,0.0,0.0,49,0.00,CLR,OVC,0.00,WeatherDisplay:10.37,2013-01-12 06:58:00,
2013-01-12 01:03:00,47.7,28.9,29.78,North,1,0.0,0.0,48,0.00,CLR,OVC,0.00,WeatherDisplay:10.37,2013-01-12 07:03:00,
2013-01-12 01:08:00,47.5,28.7,29.79,North,1,0.0,0.0,48,0.00,CLR,OVC,0.00,WeatherDisplay:10.37,2013-01-12 07:08:00,
2013-01-12 01:13:00,46.9,28.8,29.80,North,1,0.0,0.0,49,0.00,CLR,OVC,0.00,WeatherDisplay:10.37,2013-01-12 07:13:00,
2013-01-12 01:18:00,46.8,28.6,29.80,North,1,0.0,0.0,49,0.00,CLR,OVC,0.00,WeatherDisplay:10.37,2013-01-12 07:18:00,
2013-01-12 01:23:00,46.6,28.4,29.80,North,1,0.0,0.0,49,0.00,CLR,OVC,0.00,WeatherDisplay:10.37,2013-01-12 07:23:00,
2013-01-12 01:28:00,46.2,28.1,29.80,North,1,0.0,0.0,49,0.00,CLR,OVC,0.00,WeatherDisplay:10.37,2013-01-12 07:28:00,
2013-01-12 01:33:00,45.9,28.7,29.81,North,1,0.0,0.0,51,0.00,CLR,OVC,0.00,WeatherDisplay:10.37,2013-01-12 07:33:00,
2013-01-12 01:38:00,45.7,29.0,29.81,North,1,0.0,0.0,52,0.00,CLR,OVC,0.00,WeatherDisplay:10.37,2013-01-12 07:38:00,
2013-01-12 01:43:00,45.1,29.5,29.82,North,1,0.0,0.0,54,0.00,CLR,OVC,0.00,WeatherDisplay:10.37,2013-01-12 07:43:00,
2013-01-12 01:48:00,44.4,29.2,29.83,North,1,0.0,0.0,55,0.00,CLR,OVC,0.00,WeatherDisplay:10.37,2013-01-12 07:48:00,
2013-01-12 01:53:00,43.5,29.7,29.83,North,1,0.0,0.0,58,0.00,CLR,OVC,0.00,WeatherDisplay:10.37,2013-01-12 07:53:00,
2013-01-12 01:58:00,43.0,29.6,29.84,North,1,0.0,0.0,59,0.00,CLR,OVC,0.00,WeatherDisplay:10.37,2013-01-12 07:58:00,
2013-01-12 02:03:00,41.9,28.6,29.84,North,1,0.0,0.0,59,0.00,CLR,OVC,0.00,WeatherDisplay:10.37,2013-01-12 08:03:00,
2013-01-12 02:08:00,40.8,28.8,29.85,North,1,0.0,0.0,62,0.00,CLR,OVC,0.00,WeatherDisplay:10.37,2013-01-12 08:08:00,
2013-01-12 02:13:00,39.9,28.3,29.86,North,1,0.0,0.0,63,0.00,CLR,OVC,0.00,WeatherDisplay:10.37,2013-01-12 08:13:00,
2013-01-12 02:18:00,39.4,28.2,29.86,North,1,0.0,0.0,64,0.00,CLR,OVC,0.00,WeatherDisplay:10.37,2013-01-12 08:18:00,
2013-01-12 02:23:00,38.8,28.1,29.86,North,1,0.0,0.0,65,0.00,CLR,OVC,0.00,WeatherDisplay:10.37,2013-01-12 08:23:00,
2013-01-12 02:28:00,38.5,28.1,29.86,North,1,0.0,0.0,66,0.00,CLR,OVC,0.00,WeatherDisplay:10.37,2013-01-12 08:28:00,
2013-01-12 02:33:00,37.9,27.6,29.86,North,1,0.0,0.0,66,0.00,CLR,OVC,0.00,WeatherDisplay:10.37,2013-01-12 08:33:00,
2013-01-12 02:38:00,37.6,27.6,29.86,North,1,0.0,0.0,67,0.00,CLR,OVC,0.00,WeatherDisplay:10.37,2013-01-12 08:38:00,
2013-01-12 02:43:00,37.0,27.5,29.87,North,1,0.0,0.0,68,0.00,CLR,OVC,0.00,WeatherDisplay:10.37,2013-01-12 08:43:00,
2013-01-12 02:48:00,36.7,27.1,29.87,North,1,0.0,0.0,68,0.00,CLR,OVC,0.00,WeatherDisplay:10.37,2013-01-12 08:48:00,
2013-01-12 02:54:00,36.3,26.8,29.88,North,1,0.0,0.0,68,0.00,CLR,OVC,0.00,WeatherDisplay:10.37,2013-01-12 08:54:00,
2013-01-12 02:59:00,36.1,26.6,29.88,North,1,0.0,0.0,68,0.00,CLR,OVC,0.00,WeatherDisplay:10.37,2013-01-12 08:59:00,
2013-01-12 03:04:00,35.8,26.2,29.88,North,1,0.0,0.0,68,0.00,CLR,OVC,0.00,WeatherDisplay:10.37,2013-01-12 09:04:00,
2013-01-12 03:09:00,35.8,26.6,29.88,North,1,0.0,0.0,69,0.00,CLR,OVC,0.00,WeatherDisplay:10.37,2013-01-12 09:09:00,
2013-01-12 03:14:00,35.4,26.3,29.88,North,1,0.0,0.0,69,0.00,CLR,OVC,0.00,WeatherDisplay:10.37,2013-01-12 09:14:00,
2013-01-12 03:19:00,35.4,26.3,29.89,North,1,0.0,0.0,69,0.00,CLR,OVC,0.00,WeatherDisplay:10.37,2013-01-12 09:19:00,
2013-01-12 03:24:00,35.4,26.3,29.89,North,1,0.0,0.0,69,0.00,CLR,OVC,0.00,WeatherDisplay:10.37,2013-01-12 09:24:00,
2013-01-12 03:29:00,35.4,26.3,29.89,North,1,0.0,0.0,69,0.00,CLR,OVC,0.00,WeatherDisplay:10.37,2013-01-12 09:29:00,
2013-01-12 03:34:00,35.2,26.4,29.90,North,1,0.0,0.0,70,0.00,CLR,OVC,0.00,WeatherDisplay:10.37,2013-01-12 09:34:00,
2013-01-12 03:39:00,35.1,26.3,29.90,North,1,0.0,0.0,70,0.00,CLR,OVC,0.00,WeatherDisplay:10.37,2013-01-12 09:39:00,
2013-01-12 03:44:00,34.9,25.7,29.90,North,1,0.0,0.0,69,0.00,CLR,OVC,0.00,WeatherDisplay:10.37,2013-01-12 09:44:00,
2013-01-12 03:49:00,34.7,25.6,29.91,North,1,0.0,0.0,69,0.00,CLR,OVC,0.00,WeatherDisplay:10.37,2013-01-12 09:49:00,
2013-01-12 03:54:00,34.5,25.4,29.91,North,1,0.0,0.0,69,0.00,CLR,OVC,0.00,WeatherDisplay:10.37,2013-01-12 09:54:00,
2013-01-12 03:59:00,34.3,25.2,29.91,North,1,0.0,0.0,69,0.00,CLR,OVC,0.00,WeatherDisplay:10.37,2013-01-12 09:59:00,
2013-01-12 04:04:00,34.0,24.9,29.91,North,1,0.0,0.0,69,0.00,CLR,OVC,0.00,WeatherDisplay:10.37,2013-01-12 10:04:00,
2013-01-12 04:09:00,33.6,24.5,29.91,North,1,0.0,0.0,69,0.00,CLR,OVC,0.00,WeatherDisplay:10.37,2013-01-12 10:09:00,
2013-01-12 04:14:00,33.4,24.4,29.91,North,1,0.0,0.0,69,0.00,CLR,OVC,0.00,WeatherDisplay:10.37,2013-01-12 10:14:00,
2013-01-12 04:19:00,33.3,24.2,29.91,North,1,0.0,0.0,69,0.00,CLR,OVC,0.00,WeatherDisplay:10.37,2013-01-12 10:19:00,
2013-01-12 04:24:00,33.1,24.4,29.92,North,1,0.0,0.0,70,0.00,CLR,OVC,0.00,WeatherDisplay:10.37,2013-01-12 10:24:00,
2013-01-12 04:29:00,32.7,24.0,29.92,North,1,0.0,0.0,70,0.00,CLR,OVC,0.00,WeatherDisplay:10.37,2013-01-12 10:29:00,
2013-01-12 04:34:00,32.7,23.7,29.92,North,1,0.0,0.0,69,0.00,CLR,OVC,0.00,WeatherDisplay:10.37,2013-01-12 10:34:00,
2013-01-12 04:39:00,32.4,23.3,29.93,North,1,0.0,0.0,69,0.00,CLR,OVC,0.00,WeatherDisplay:10.37,2013-01-12 10:39:00,
2013-01-12 04:44:00,32.2,23.1,29.93,North,1,0.0,0.0,69,0.00,CLR,OVC,0.00,WeatherDisplay:10.37,2013-01-12 10:44:00,
2013-01-12 04:49:00,32.0,23.0,29.93,North,1,0.0,0.0,69,0.00,CLR,OVC,0.00,WeatherDisplay:10.37,2013-01-12 10:49:00,
2013-01-12 04:54:00,31.8,22.8,29.93,North,1,0.0,0.0,69,0.00,CLR,OVC,0.00,WeatherDisplay:10.37,2013-01-12 10:54:00,
2013-01-12 04:59:00,31.6,22.6,29.93,North,1,0.0,0.0,69,0.00,CLR,OVC,0.00,WeatherDisplay:10.37,2013-01-12 10:59:00,
2013-01-12 05:04:00,31.3,22.3,29.93,North,1,0.0,0.0,69,0.00,CLR,OVC,0.00,WeatherDisplay:10.37,2013-01-12 11:04:00,
2013-01-12 05:09:00,31.3,21.9,29.93,North,1,0.0,0.0,68,0.00,CLR,OVC,0.00,WeatherDisplay:10.37,2013-01-12 11:09:00,
2013-01-12 05:14:00,30.9,21.6,29.93,North,1,0.0,0.0,68,0.00,CLR,OVC,0.00,WeatherDisplay:10.37,2013-01-12 11:14:00,
2013-01-12 05:19:00,30.7,21.1,29.93,North,1,0.0,0.0,67,0.00,CLR,OVC,0.00,WeatherDisplay:10.37,2013-01-12 11:19:00,
2013-01-12 05:24:00,30.4,20.7,29.93,North,1,0.0,0.0,67,0.00,CLR,OVC,0.00,WeatherDisplay:10.37,2013-01-12 11:24:00,
2013-01-12 05:29:00,30.0,20.4,29.93,North,1,0.0,0.0,67,0.00,CLR,OVC,0.00,WeatherDisplay:10.37,2013-01-12 11:29:00,
2013-01-12 05:34:00,29.8,20.2,29.94,North,1,0.0,0.0,67,0.00,CLR,OVC,0.00,WeatherDisplay:10.37,2013-01-12 11:34:00,
2013-01-12 05:39:00,29.5,19.5,29.95,North,1,0.0,0.0,66,0.00,CLR,OVC,0.00,WeatherDisplay:10.37,2013-01-12 11:39:00,
2013-01-12 05:44:00,29.3,19.3,29.95,North,1,0.0,0.0,66,0.00,CLR,OVC,0.00,WeatherDisplay:10.37,2013-01-12 11:44:00,
2013-01-12 05:49:00,29.1,19.2,29.95,North,1,0.0,0.0,66,0.00,CLR,OVC,0.00,WeatherDisplay:10.37,2013-01-12 11:49:00,
2013-01-12 05:54:00,28.9,19.0,29.95,North,1,0.0,0.0,66,0.00,CLR,OVC,0.00,WeatherDisplay:10.37,2013-01-12 11:54:00,
2013-01-12 05:59:00,28.4,18.5,29.95,North,1,0.0,0.0,66,0.00,CLR,OVC,0.00,WeatherDisplay:10.37,2013-01-12 11:59:00,
2013-01-12 06:04:00,28.2,18.0,29.96,North,1,0.0,0.0,65,0.00,CLR,OVC,0.00,WeatherDisplay:10.37,2013-01-12 12:04:00,
2013-01-12 06:09:00,28.0,17.8,29.95,North,1,0.0,0.0,65,0.00,CLR,OVC,0.00,WeatherDisplay:10.37,2013-01-12 12:09:00,
2013-01-12 06:14:00,27.9,17.6,29.95,North,1,0.0,0.0,65,0.00,CLR,OVC,0.00,WeatherDisplay:10.37,2013-01-12 12:14:00,
2013-01-12 06:19:00,27.7,17.4,29.95,North,1,0.0,0.0,65,0.00,CLR,OVC,0.00,WeatherDisplay:10.37,2013-01-12 12:19:00,
2013-01-12 06:24:00,27.5,17.3,29.96,North,1,0.0,0.0,65,0.00,CLR,OVC,0.00,WeatherDisplay:10.37,2013-01-12 12:24:00,
2013-01-12 06:29:00,27.3,17.1,29.96,North,1,0.0,0.0,65,0.00,CLR,OVC,0.00,WeatherDisplay:10.37,2013-01-12 12:29:00,
2013-01-12 06:34:00,27.1,16.9,29.96,North,1,0.0,0.0,65,0.00,CLR,OVC,0.00,WeatherDisplay:10.37,2013-01-12 12:34:00,
2013-01-12 06:39:00,27.1,16.9,29.97,North,1,0.0,0.0,65,0.00,CLR,OVC,0.00,WeatherDisplay:10.37,2013-01-12 12:39:00,
2013-01-12 06:44:00,27.1,16.9,29.98,North,1,0.0,0.0,65,0.00,CLR,OVC,0.00,WeatherDisplay:10.37,2013-01-12 12:44:00,
2013-01-12 06:49:00,26.8,16.6,29.99,North,1,0.0,0.0,65,0.00,CLR,OVC,0.00,WeatherDisplay:10.37,2013-01-12 12:49:00,
2013-01-12 06:54:00,26.8,16.6,29.99,North,1,0.0,0.0,65,0.00,CLR,OVC,0.00,WeatherDisplay:10.37,2013-01-12 12:54:00,
2013-01-12 06:59:00,26.8,16.6,29.99,North,1,0.0,0.0,65,0.00,CLR,OVC,0.00,WeatherDisplay:10.37,2013-01-12 12:59:00,
2013-01-12 07:04:00,26.6,16.4,29.98,North,1,0.0,0.0,65,0.00,CLR,OVC,0.00,WeatherDisplay:10.37,2013-01-12 13:04:00,
2013-01-12 07:09:00,26.6,16.4,29.99,North,1,0.0,0.0,65,0.00,CLR,OVC,0.00,WeatherDisplay:10.37,2013-01-12 13:09:00,
2013-01-12 07:13:00,26.6,16.4,29.99,North,1,0.0,0.0,65,0.00,CLR,OVC,0.00,WeatherDisplay:10.37,2013-01-12 13:13:00,
2013-01-12 07:18:00,26.4,16.2,29.98,North,1,0.0,0.0,65,0.00,CLR,OVC,0.00,WeatherDisplay:10.37,2013-01-12 13:18:00,
2013-01-12 07:23:00,26.4,16.2,29.98,North,1,0.0,0.0,65,0.00,CLR,OVC,0.00,WeatherDisplay:10.37,2013-01-12 13:23:00,
2013-01-12 07:28:00,26.2,16.1,29.99,North,1,0.0,0.0,65,0.00,CLR,OVC,0.00,WeatherDisplay:10.37,2013-01-12 13:28:00,
2013-01-12 07:33:00,26.2,16.1,29.99,North,1,0.0,0.0,65,0.00,CLR,OVC,0.00,WeatherDisplay:10.37,2013-01-12 13:33:00,
2013-01-12 07:38:00,26.2,16.4,29.99,North,1,0.0,0.0,66,0.00,CLR,OVC,0.00,WeatherDisplay:10.37,2013-01-12 13:38:00,
2013-01-12 07:43:00,26.2,16.4,30.00,North,1,0.0,0.0,66,0.00,CLR,OVC,0.00,WeatherDisplay:10.37,2013-01-12 13:43:00,
2013-01-12 07:48:00,26.2,16.4,30.00,North,1,0.0,0.0,66,0.00,CLR,OVC,0.00,WeatherDisplay:10.37,2013-01-12 13:48:00,
2013-01-12 07:53:00,26.1,16.2,29.99,North,1,0.0,0.0,66,0.00,CLR,OVC,0.00,WeatherDisplay:10.37,2013-01-12 13:53:00,
2013-01-12 07:58:00,26.1,16.2,29.99,North,1,0.0,0.0,66,0.00,CLR,OVC,0.00,WeatherDisplay:10.37,2013-01-12 13:58:00,
2013-01-12 08:03:00,26.2,16.4,29.99,North,1,0.0,0.0,66,0.00,CLR,OVC,0.00,WeatherDisplay:10.37,2013-01-12 14:03:00,
2013-01-12 08:08:00,26.2,16.4,29.99,North,1,0.0,0.0,66,0.00,CLR,OVC,0.00,WeatherDisplay:10.37,2013-01-12 14:08:00,
2013-01-12 08:13:00,26.2,16.4,30.00,North,1,0.0,0.0,66,0.00,CLR,OVC,0.00,WeatherDisplay:10.37,2013-01-12 14:13:00,
2013-01-12 08:18:00,26.2,16.4,30.01,North,1,0.0,0.0,66,0.00,CLR,OVC,0.00,WeatherDisplay:10.37,2013-01-12 14:18:00,
2013-01-12 08:23:00,26.4,16.2,30.00,North,1,0.0,0.0,65,0.00,CLR,OVC,0.00,WeatherDisplay:10.37,2013-01-12 14:23:00,
2013-01-12 08:28:00,26.6,16.4,30.01,North,1,0.0,0.0,65,0.00,CLR,OVC,0.00,WeatherDisplay:10.37,2013-01-12 14:28:00,
2013-01-12 08:33:00,26.8,16.2,30.01,North,1,0.0,0.0,64,0.00,CLR,OVC,0.00,WeatherDisplay:10.37,2013-01-12 14:33:00,
2013-01-12 08:38:00,26.8,16.2,30.01,North,1,0.0,0.0,64,0.00,CLR,OVC,0.00,WeatherDisplay:10.37,2013-01-12 14:38:00,
2013-01-12 08:43:00,27.0,16.0,30.02,North,1,0.0,0.0,63,0.00,CLR,OVC,0.00,WeatherDisplay:10.37,2013-01-12 14:43:00,
2013-01-12 08:48:00,27.0,16.0,30.03,North,1,0.0,0.0,63,0.00,CLR,OVC,0.00,WeatherDisplay:10.37,2013-01-12 14:48:00,
2013-01-12 08:53:00,26.8,15.5,30.02,North,1,0.0,0.0,62,0.00,CLR,OVC,0.00,WeatherDisplay:10.37,2013-01-12 14:53:00,
2013-01-12 08:58:00,26.8,15.5,30.03,North,1,0.0,0.0,62,0.00,CLR,OVC,0.00,WeatherDisplay:10.37,2013-01-12 14:58:00,
2013-01-12 09:03:00,26.8,15.5,30.04,North,1,0.0,0.0,62,0.00,CLR,OVC,0.00,WeatherDisplay:10.37,2013-01-12 15:03:00,
2013-01-12 09:08:00,26.8,15.5,30.04,North,1,0.0,0.0,62,0.00,CLR,OVC,0.00,WeatherDisplay:10.37,2013-01-12 15:08:00,
2013-01-12 09:13:00,27.3,16.0,30.04,North,1,0.0,0.0,62,0.00,CLR,OVC,0.00,WeatherDisplay:10.37,2013-01-12 15:13:00,
2013-01-12 09:18:00,27.3,15.6,30.04,North,1,0.0,0.0,61,0.00,CLR,OVC,0.00,WeatherDisplay:10.37,2013-01-12 15:18:00,
2013-01-12 09:23:00,27.3,15.6,30.06,North,1,0.0,0.0,61,0.00,CLR,OVC,0.00,WeatherDisplay:10.37,2013-01-12 15:23:00,
2013-01-12 09:28:00,27.3,15.6,30.06,North,1,0.0,0.0,61,0.00,CLR,OVC,0.00,WeatherDisplay:10.37,2013-01-12 15:28:00,
2013-01-12 09:33:00,28.0,16.3,30.06,North,1,0.0,0.0,61,0.00,CLR,OVC,0.00,WeatherDisplay:10.37,2013-01-12 15:33:00,
2013-01-12 09:38:00,28.2,16.5,30.06,North,1,0.0,0.0,61,0.00,CLR,OVC,0.00,WeatherDisplay:10.37,2013-01-12 15:38:00,
2013-01-12 09:43:00,28.6,16.4,30.07,North,1,0.0,0.0,60,0.00,CLR,OVC,0.00,WeatherDisplay:10.37,2013-01-12 15:43:00,
2013-01-12 09:48:00,29.1,17.0,30.06,North,1,0.0,0.0,60,0.00,CLR,OVC,0.00,WeatherDisplay:10.37,2013-01-12 15:48:00,
2013-01-12 09:53:00,29.7,17.5,30.06,North,1,0.0,0.0,60,0.00,CLR,OVC,0.00,WeatherDisplay:10.37,2013-01-12 15:53:00,
2013-01-12 09:58:00,30.4,17.7,30.06,North,1,0.0,0.0,59,0.00,CLR,OVC,0.00,WeatherDisplay:10.37,2013-01-12 15:58:00,
2013-01-12 10:03:00,30.9,17.9,30.05,North,1,0.0,0.0,58,0.00,CLR,OVC,0.00,WeatherDisplay:10.37,2013-01-12 16:03:00,
2013-01-12 10:08:00,30.7,17.7,30.04,North,1,0.0,0.0,58,0.00,CLR,OVC,0.00,WeatherDisplay:10.37,2013-01-12 16:08:00,
2013-01-12 10:13:00,30.4,17.4,30.04,North,1,0.0,0.0,58,0.00,CLR,OVC,0.00,WeatherDisplay:10.37,2013-01-12 16:13:00,
2013-01-12 10:18:00,30.4,17.4,30.05,North,1,0.0,0.0,58,0.00,CLR,OVC,0.00,WeatherDisplay:10.37,2013-01-12 16:18:00,
2013-01-12 10:23:00,30.2,17.2,30.05,North,1,0.0,0.0,58,0.00,CLR,OVC,0.00,WeatherDisplay:10.37,2013-01-12 16:23:00,
2013-01-12 10:28:00,30.0,16.6,30.03,North,1,0.0,0.0,57,0.00,CLR,OVC,0.00,WeatherDisplay:10.37,2013-01-12 16:28:00,
2013-01-12 10:33:00,30.0,16.6,30.03,North,1,0.0,0.0,57,0.00,CLR,OVC,0.00,WeatherDisplay:10.37,2013-01-12 16:33:00,
2013-01-12 10:38:00,30.0,16.6,30.04,North,1,0.0,0.0,57,0.00,CLR,OVC,0.00,WeatherDisplay:10.37,2013-01-12 16:38:00,
2013-01-12 10:43:00,30.0,16.6,30.04,North,1,0.0,0.0,57,0.00,CLR,OVC,0.00,WeatherDisplay:10.37,2013-01-12 16:43:00,
2013-01-12 10:48:00,30.0,16.6,30.04,North,1,0.0,0.0,57,0.00,CLR,OVC,0.00,WeatherDisplay:10.37,2013-01-12 16:48:00,
2013-01-12 10:53:00,30.0,17.0,30.04,North,1,0.0,0.0,58,0.00,CLR,OVC,0.00,WeatherDisplay:10.37,2013-01-12 16:53:00,
2013-01-12 10:58:00,30.0,17.0,30.05,North,1,0.0,0.0,58,0.00,CLR,OVC,0.00,WeatherDisplay:10.37,2013-01-12 16:58:00,
2013-01-12 11:03:00,30.2,16.8,30.04,North,1,0.0,0.0,57,0.00,CLR,OVC,0.00,WeatherDisplay:10.37,2013-01-12 17:03:00,
2013-01-12 11:08:00,30.2,16.8,30.04,North,1,0.0,0.0,57,0.00,CLR,OVC,0.00,WeatherDisplay:10.37,2013-01-12 17:08:00,
2013-01-12 11:13:00,30.4,16.9,30.04,North,1,0.0,0.0,57,0.00,CLR,OVC,0.00,WeatherDisplay:10.37,2013-01-12 17:13:00,
2013-01-12 11:18:00,30.4,16.9,30.03,North,1,0.0,0.0,57,0.00,CLR,OVC,0.00,WeatherDisplay:10.37,2013-01-12 17:18:00,
2013-01-12 11:23:00,30.7,17.3,30.03,North,1,0.0,0.0,57,0.00,CLR,OVC,0.00,WeatherDisplay:10.37,2013-01-12 17:23:00,
2013-01-12 11:28:00,30.6,17.1,30.01,North,1,0.0,0.0,57,0.00,CLR,OVC,0.00,WeatherDisplay:10.37,2013-01-12 17:28:00,
2013-01-12 11:33:00,30.4,16.9,30.01,North,1,0.0,0.0,57,0.00,CLR,OVC,0.00,WeatherDisplay:10.37,2013-01-12 17:33:00,
2013-01-12 11:38:00,30.7,17.3,30.00,North,1,0.0,0.0,57,0.00,CLR,OVC,0.00,WeatherDisplay:10.37,2013-01-12 17:38:00,
2013-01-12 11:43:00,30.9,17.5,30.00,North,1,0.0,0.0,57,0.00,CLR,OVC,0.00,WeatherDisplay:10.37,2013-01-12 17:43:00,
2013-01-12 11:48:00,30.9,17.5,29.99,North,1,0.0,0.0,57,0.00,CLR,OVC,0.00,WeatherDisplay:10.37,2013-01-12 17:48:00,
2013-01-12 11:53:00,31.3,17.8,29.99,North,1,0.0,0.0,57,0.00,CLR,OVC,0.00,WeatherDisplay:10.37,2013-01-12 17:53:00,
2013-01-12 11:58:00,30.9,17.0,29.99,North,1,0.0,0.0,56,0.00,CLR,OVC,0.00,WeatherDisplay:10.37,2013-01-12 17:58:00,
2013-01-12 12:03:00,30.7,16.9,29.99,North,1,0.0,0.0,56,0.00,CLR,OVC,0.00,WeatherDisplay:10.37,2013-01-12 18:03:00,
2013-01-12 12:08:00,30.4,16.5,29.99,North,1,0.0,0.0,56,0.00,CLR,OVC,0.00,WeatherDisplay:10.37,2013-01-12 18:08:00,
2013-01-12 12:13:00,30.0,16.2,30.00,North,1,0.0,0.0,56,0.00,CLR,OVC,0.00,WeatherDisplay:10.37,2013-01-12 18:13:00,
2013-01-12 12:18:00,29.8,16.0,30.00,North,1,0.0,0.0,56,0.00,CLR,OVC,0.00,WeatherDisplay:10.37,2013-01-12 18:18:00,
2013-01-12 12:23:00,29.8,16.0,30.00,North,1,0.0,0.0,56,0.00,CLR,OVC,0.00,WeatherDisplay:10.37,2013-01-12 18:23:00,
2013-01-12 12:28:00,29.8,16.0,30.00,North,1,0.0,0.0,56,0.00,CLR,OVC,0.00,WeatherDisplay:10.37,2013-01-12 18:28:00,
2013-01-12 12:33:00,29.8,16.4,30.00,North,1,0.0,0.0,57,0.00,CLR,OVC,0.00,WeatherDisplay:10.37,2013-01-12 18:33:00,
2013-01-12 12:38:00,29.8,16.0,30.00,North,1,0.0,0.0,56,0.00,CLR,OVC,0.00,WeatherDisplay:10.37,2013-01-12 18:38:00,
2013-01-12 12:43:00,29.7,15.9,29.99,North,1,0.0,0.0,56,0.00,CLR,OVC,0.00,WeatherDisplay:10.37,2013-01-12 18:43:00,
2013-01-12 12:48:00,29.7,15.9,29.99,North,1,0.0,0.0,56,0.00,CLR,OVC,0.00,WeatherDisplay:10.37,2013-01-12 18:48:00,
2013-01-12 12:53:00,29.5,15.7,29.99,North,1,0.0,0.0,56,0.00,CLR,OVC,0.00,WeatherDisplay:10.37,2013-01-12 18:53:00,
2013-01-12 12:58:00,29.5,15.7,29.99,North,1,0.0,0.0,56,0.00,CLR,OVC,0.00,WeatherDisplay:10.37,2013-01-12 18:58:00,
2013-01-12 13:03:00,29.5,15.7,29.99,North,1,0.0,0.0,56,0.00,CLR,OVC,0.00,WeatherDisplay:10.37,2013-01-12 19:03:00,
2013-01-12 13:08:00,29.7,15.9,29.99,North,1,0.0,0.0,56,0.00,CLR,OVC,0.00,WeatherDisplay:10.37,2013-01-12 19:08:00,
2013-01-12 13:13:00,29.8,16.0,29.99,North,1,0.0,0.0,56,0.00,CLR,OVC,0.00,WeatherDisplay:10.37,2013-01-12 19:13:00,
2013-01-12 13:18:00,29.8,16.0,29.98,North,1,0.0,0.0,56,0.00,CLR,OVC,0.00,WeatherDisplay:10.37,2013-01-12 19:18:00,
2013-01-12 13:23:00,29.8,16.0,29.99,North,1,0.0,0.0,56,0.00,CLR,OVC,0.00,WeatherDisplay:10.37,2013-01-12 19:23:00,
2013-01-12 13:28:00,29.8,16.0,30.00,North,1,0.0,0.0,56,0.00,CLR,OVC,0.00,WeatherDisplay:10.37,2013-01-12 19:28:00,
2013-01-12 13:33:00,29.5,15.3,30.00,North,1,0.0,0.0,55,0.00,CLR,OVC,0.00,WeatherDisplay:10.37,2013-01-12 19:33:00,
2013-01-12 13:38:00,29.5,15.3,29.99,North,1,0.0,0.0,55,0.00,CLR,OVC,0.00,WeatherDisplay:10.37,2013-01-12 19:38:00,
2013-01-12 13:43:00,29.1,14.9,29.99,North,1,0.0,0.0,55,0.00,CLR,OVC,0.00,WeatherDisplay:10.37,2013-01-12 19:43:00,
2013-01-12 13:48:00,29.1,14.9,29.99,North,1,0.0,0.0,55,0.00,CLR,OVC,0.00,WeatherDisplay:10.37,2013-01-12 19:48:00,
2013-01-12 13:53:00,28.9,14.8,30.00,North,1,0.0,0.0,55,0.00,CLR,OVC,0.00,WeatherDisplay:10.37,2013-01-12 19:53:00,
2013-01-12 13:58:00,29.1,15.4,30.00,North,1,0.0,0.0,56,0.00,CLR,OVC,0.00,WeatherDisplay:10.37,2013-01-12 19:58:00,
2013-01-12 14:03:00,29.1,15.4,29.99,North,1,0.0,0.0,56,0.00,CLR,OVC,0.00,WeatherDisplay:10.37,2013-01-12 20:03:00,
2013-01-12 14:08:00,29.1,15.4,29.99,North,1,0.0,0.0,56,0.00,CLR,OVC,0.00,WeatherDisplay:10.37,2013-01-12 20:08:00,
2013-01-12 14:13:00,29.1,15.4,29.98,North,1,0.0,0.0,56,0.00,CLR,OVC,0.00,WeatherDisplay:10.37,2013-01-12 20:13:00,
2013-01-12 14:18:00,29.1,15.4,29.97,North,1,0.0,0.0,56,0.00,CLR,OVC,0.00,WeatherDisplay:10.37,2013-01-12 20:18:00,
2013-01-12 14:23:00,28.9,14.8,29.97,North,1,0.0,0.0,55,0.00,CLR,OVC,0.00,WeatherDisplay:10.37,2013-01-12 20:23:00,
2013-01-12 14:28:00,28.9,14.8,29.96,North,1,0.0,0.0,55,0.00,CLR,OVC,0.00,WeatherDisplay:10.37,2013-01-12 20:28:00,
2013-01-12 14:33:00,28.8,14.6,29.97,North,1,0.0,0.0,55,0.00,CLR,OVC,0.00,WeatherDisplay:10.37,2013-01-12 20:33:00,
2013-01-12 14:38:00,28.8,14.6,29.97,North,1,0.0,0.0,55,0.00,CLR,OVC,0.00,WeatherDisplay:10.37,2013-01-12 20:38:00,
2013-01-12 14:43:00,28.6,14.4,29.97,North,1,0.0,0.0,55,0.00,CLR,OVC,0.00,WeatherDisplay:10.37,2013-01-12 20:43:00,
2013-01-12 14:48:00,28.4,14.3,29.98,North,1,0.0,0.0,55,0.00,CLR,OVC,0.00,WeatherDisplay:10.37,2013-01-12 20:48:00,
2013-01-12 14:53:00,28.4,14.3,29.98,North,1,0.0,0.0,55,0.00,CLR,OVC,0.00,WeatherDisplay:10.37,2013-01-12 20:53:00,
2013-01-12 14:58:00,28.2,14.1,29.98,North,1,0.0,0.0,55,0.00,CLR,OVC,0.00,WeatherDisplay:10.37,2013-01-12 20:58:00,
2013-01-12 15:03:00,28.0,13.9,29.97,North,1,0.0,0.0,55,0.00,CLR,OVC,0.00,WeatherDisplay:10.37,2013-01-12 21:03:00,
2013-01-12 15:08:00,28.0,13.9,29.97,North,1,0.0,0.0,55,0.00,CLR,OVC,0.00,WeatherDisplay:10.37,2013-01-12 21:08:00,
2013-01-12 15:13:00,28.0,13.9,29.97,North,1,0.0,0.0,55,0.00,CLR,OVC,0.00,WeatherDisplay:10.37,2013-01-12 21:13:00,
2013-01-12 15:18:00,28.0,13.9,29.98,North,1,0.0,0.0,55,0.00,CLR,OVC,0.00,WeatherDisplay:10.37,2013-01-12 21:18:00,
2013-01-12 15:23:00,28.0,13.9,29.98,North,1,0.0,0.0,55,0.00,CLR,OVC,0.00,WeatherDisplay:10.37,2013-01-12 21:23:00,
2013-01-12 15:28:00,28.0,13.9,29.98,North,1,0.0,0.0,55,0.00,CLR,OVC,0.00,WeatherDisplay:10.37,2013-01-12 21:28:00,
2013-01-12 15:33:00,27.9,13.8,29.98,North,1,0.0,0.0,55,0.00,CLR,OVC,0.00,WeatherDisplay:10.37,2013-01-12 21:33:00,
2013-01-12 15:38:00,27.9,13.8,29.99,North,1,0.0,0.0,55,0.00,CLR,OVC,0.00,WeatherDisplay:10.37,2013-01-12 21:38:00,
2013-01-12 15:43:00,27.9,13.8,29.97,North,1,0.0,0.0,55,0.00,CLR,OVC,0.00,WeatherDisplay:10.37,2013-01-12 21:43:00,
2013-01-12 15:48:00,27.7,13.6,29.98,North,1,0.0,0.0,55,0.00,CLR,OVC,0.00,WeatherDisplay:10.37,2013-01-12 21:48:00,
2013-01-12 15:53:00,27.7,13.6,29.99,North,1,0.0,0.0,55,0.00,CLR,OVC,0.00,WeatherDisplay:10.37,2013-01-12 21:53:00,
2013-01-12 15:58:00,27.3,13.3,30.00,North,1,0.0,0.0,55,0.00,CLR,OVC,0.00,WeatherDisplay:10.37,2013-01-12 21:58:00,
2013-01-12 16:03:00,27.3,13.3,29.99,North,1,0.0,0.0,55,0.00,CLR,OVC,0.00,WeatherDisplay:10.37,2013-01-12 22:03:00,
2013-01-12 16:08:00,27.3,13.3,29.99,North,1,0.0,0.0,55,0.00,CLR,OVC,0.00,WeatherDisplay:10.37,2013-01-12 22:08:00,
2013-01-12 16:13:00,27.3,13.3,30.00,North,1,0.0,0.0,55,0.00,CLR,OVC,0.00,WeatherDisplay:10.37,2013-01-12 22:13:00,
2013-01-12 16:18:00,27.3,13.3,30.00,North,1,0.0,0.0,55,0.00,CLR,OVC,0.00,WeatherDisplay:10.37,2013-01-12 22:18:00,
2013-01-12 16:23:00,27.3,13.3,29.99,North,1,0.0,0.0,55,0.00,CLR,OVC,0.00,WeatherDisplay:10.37,2013-01-12 22:23:00,
2013-01-12 16:28:00,27.1,12.7,29.99,North,1,0.0,0.0,54,0.00,CLR,OVC,0.00,WeatherDisplay:10.37,2013-01-12 22:28:00,
2013-01-12 16:33:00,27.1,12.7,30.01,North,1,0.0,0.0,54,0.00,CLR,OVC,0.00,WeatherDisplay:10.37,2013-01-12 22:33:00,
2013-01-12 16:38:00,27.0,12.5,30.01,North,1,0.0,0.0,54,0.00,CLR,OVC,0.00,WeatherDisplay:10.37,2013-01-12 22:38:00,
2013-01-12 16:43:00,27.0,12.5,30.01,North,1,0.0,0.0,54,0.00,CLR,OVC,0.00,WeatherDisplay:10.37,2013-01-12 22:43:00,
2013-01-12 16:48:00,27.0,12.5,30.01,North,1,0.0,0.0,54,0.00,CLR,OVC,0.00,WeatherDisplay:10.37,2013-01-12 22:48:00,
2013-01-12 16:53:00,26.8,12.3,30.01,North,1,0.0,0.0,54,0.00,CLR,OVC,0.00,WeatherDisplay:10.37,2013-01-12 22:53:00,
2013-01-12 16:58:00,26.6,12.6,30.01,North,1,0.0,0.0,55,0.00,CLR,OVC,0.00,WeatherDisplay:10.37,2013-01-12 22:58:00,
2013-01-12 17:03:00,26.4,12.4,30.02,North,1,0.0,0.0,55,0.00,CLR,OVC,0.00,WeatherDisplay:10.37,2013-01-12 23:03:00,
2013-01-12 17:08:00,26.2,12.2,30.05,North,1,0.0,0.0,55,0.00,CLR,OVC,0.00,WeatherDisplay:10.37,2013-01-12 23:08:00,
2013-01-12 17:13:00,26.1,12.1,30.05,North,1,0.0,0.0,55,0.00,CLR,OVC,0.00,WeatherDisplay:10.37,2013-01-12 23:13:00,
2013-01-12 17:18:00,25.9,11.9,30.05,North,1,0.0,0.0,55,0.00,CLR,OVC,0.00,WeatherDisplay:10.37,2013-01-12 23:18:00,
2013-01-12 17:23:00,25.7,11.7,30.05,North,1,0.0,0.0,55,0.00,CLR,OVC,0.00,WeatherDisplay:10.37,2013-01-12 23:23:00,
2013-01-12 17:28:00,25.5,11.6,30.05,North,1,0.0,0.0,55,0.00,CLR,OVC,0.00,WeatherDisplay:10.37,2013-01-12 23:28:00,
2013-01-12 17:33:00,25.5,11.6,30.04,North,1,0.0,0.0,55,0.00,CLR,OVC,0.00,WeatherDisplay:10.37,2013-01-12 23:33:00,
2013-01-12 17:38:00,25.5,11.6,30.04,North,1,0.0,0.0,55,0.00,CLR,OVC,0.00,WeatherDisplay:10.37,2013-01-12 23:38:00,
2013-01-12 17:43:00,25.3,11.4,30.04,North,1,0.0,0.0,55,0.00,CLR,OVC,0.00,WeatherDisplay:10.37,2013-01-12 23:43:00,
2013-01-12 17:48:00,25.0,11.1,30.01,North,1,0.0,0.0,55,0.00,CLR,OVC,0.00,WeatherDisplay:10.37,2013-01-12 23:48:00,
2013-01-12 17:53:00,24.8,10.9,30.01,North,1,0.0,0.0,55,0.00,CLR,OVC,0.00,WeatherDisplay:10.37,2013-01-12 23:53:00,
2013-01-12 17:58:00,24.4,10.6,29.98,North,1,0.0,0.0,55,0.00,CLR,OVC,0.00,WeatherDisplay:10.37,2013-01-12 23:58:00,
2013-01-12 18:03:00,24.4,11.0,29.99,North,1,0.0,0.0,56,0.00,CLR,OVC,0.00,WeatherDisplay:10.37,2013-01-13 00:03:00,
2013-01-12 18:08:00,24.4,11.0,29.99,North,1,0.0,0.0,56,0.00,CLR,OVC,0.00,WeatherDisplay:10.37,2013-01-13 00:08:00,
2013-01-12 18:13:00,24.3,10.8,30.00,North,1,0.0,0.0,56,0.00,CLR,OVC,0.00,WeatherDisplay:10.37,2013-01-13 00:13:00,
2013-01-12 18:18:00,24.3,10.8,29.99,North,1,0.0,0.0,56,0.00,CLR,OVC,0.00,WeatherDisplay:10.37,2013-01-13 00:18:00,
2013-01-12 18:23:00,24.1,10.6,29.99,North,1,0.0,0.0,56,0.00,CLR,OVC,0.00,WeatherDisplay:10.37,2013-01-13 00:23:00,
2013-01-12 18:28:00,24.1,10.6,29.98,North,1,0.0,0.0,56,0.00,CLR,OVC,0.00,WeatherDisplay:10.37,2013-01-13 00:28:00,
2013-01-12 18:33:00,24.1,10.6,29.98,North,1,0.0,0.0,56,0.00,CLR,OVC,0.00,WeatherDisplay:10.37,2013-01-13 00:33:00,
2013-01-12 18:38:00,24.1,10.6,30.00,North,1,0.0,0.0,56,0.00,CLR,OVC,0.00,WeatherDisplay:10.37,2013-01-13 00:38:00,
2013-01-12 18:43:00,24.1,10.6,29.99,North,1,0.0,0.0,56,0.00,CLR,OVC,0.00,WeatherDisplay:10.37,2013-01-13 00:43:00,
2013-01-12 18:48:00,24.1,11.0,29.99,North,1,0.0,0.0,57,0.00,CLR,OVC,0.00,WeatherDisplay:10.37,2013-01-13 00:48:00,
2013-01-12 18:53:00,24.1,11.0,29.99,North,1,0.0,0.0,57,0.00,CLR,OVC,0.00,WeatherDisplay:10.37,2013-01-13 00:53:00,
2013-01-12 18:58:00,24.1,11.0,29.98,North,1,0.0,0.0,57,0.00,CLR,OVC,0.00,WeatherDisplay:10.37,2013-01-13 00:58:00,
2013-01-12 19:03:00,24.1,11.0,29.98,North,1,0.0,0.0,57,0.00,CLR,OVC,0.00,WeatherDisplay:10.37,2013-01-13 01:03:00,
2013-01-12 19:08:00,24.1,11.4,29.98,North,1,0.0,0.0,58,0.00,CLR,OVC,0.00,WeatherDisplay:10.37,2013-01-13 01:08:00,
2013-01-12 19:13:00,24.1,11.4,29.99,North,1,0.0,0.0,58,0.00,CLR,OVC,0.00,WeatherDisplay:10.37,2013-01-13 01:13:00,
2013-01-12 19:18:00,23.9,11.3,29.99,North,1,0.0,0.0,58,0.00,CLR,OVC,0.00,WeatherDisplay:10.37,2013-01-13 01:18:00,
2013-01-12 19:23:00,24.1,11.4,30.01,North,1,0.0,0.0,58,0.00,CLR,OVC,0.00,WeatherDisplay:10.37,2013-01-13 01:23:00,
2013-01-12 19:28:00,23.7,11.1,30.02,North,1,0.0,0.0,58,0.00,CLR,OVC,0.00,WeatherDisplay:10.37,2013-01-13 01:28:00,
2013-01-12 19:33:00,23.9,11.3,30.02,North,1,0.0,0.0,58,0.00,CLR,OVC,0.00,WeatherDisplay:10.37,2013-01-13 01:33:00,
2013-01-12 19:38:00,24.1,11.4,30.01,North,1,0.0,0.0,58,0.00,CLR,OVC,0.00,WeatherDisplay:10.37,2013-01-13 01:38:00,
2013-01-12 19:43:00,24.1,11.4,30.00,North,1,0.0,0.0,58,0.00,CLR,OVC,0.00,WeatherDisplay:10.37,2013-01-13 01:43:00,
2013-01-12 19:48:00,24.1,11.4,30.00,North,1,0.0,0.0,58,0.00,CLR,OVC,0.00,WeatherDisplay:10.37,2013-01-13 01:48:00,
2013-01-12 19:53:00,23.7,11.1,30.00,North,1,0.0,0.0,58,0.00,CLR,OVC,0.00,WeatherDisplay:10.37,2013-01-13 01:53:00,
2013-01-12 19:58:00,23.7,11.1,29.99,North,1,0.0,0.0,58,0.00,CLR,OVC,0.00,WeatherDisplay:10.37,2013-01-13 01:58:00,
2013-01-12 20:03:00,23.7,11.5,30.00,North,1,0.0,0.0,59,0.00,CLR,OVC,0.00,WeatherDisplay:10.37,2013-01-13 02:03:00,
2013-01-12 20:08:00,23.7,11.5,30.01,North,1,0.0,0.0,59,0.00,CLR,OVC,0.00,WeatherDisplay:10.37,2013-01-13 02:08:00,
2013-01-12 20:13:00,23.5,11.7,30.02,North,1,0.0,0.0,60,0.00,CLR,OVC,0.00,WeatherDisplay:10.37,2013-01-13 02:13:00,
2013-01-12 20:18:00,23.5,11.7,30.02,North,1,0.0,0.0,60,0.00,CLR,OVC,0.00,WeatherDisplay:10.37,2013-01-13 02:18:00,
2013-01-12 20:23:00,23.5,12.1,30.01,North,1,0.0,0.0,61,0.00,CLR,OVC,0.00,WeatherDisplay:10.37,2013-01-13 02:23:00,
2013-01-12 20:28:00,23.5,12.4,30.01,North,1,0.0,0.0,62,0.00,CLR,OVC,0.00,WeatherDisplay:10.37,2013-01-13 02:28:00,
2013-01-12 20:33:00,23.5,12.4,30.02,North,1,0.0,0.0,62,0.00,CLR,OVC,0.00,WeatherDisplay:10.37,2013-01-13 02:33:00,
2013-01-12 20:38:00,23.5,12.4,30.01,North,1,0.0,0.0,62,0.00,CLR,OVC,0.00,WeatherDisplay:10.37,2013-01-13 02:38:00,
2013-01-12 20:43:00,23.5,12.4,30.01,North,1,0.0,0.0,62,0.00,CLR,OVC,0.00,WeatherDisplay:10.37,2013-01-13 02:43:00,
2013-01-12 20:48:00,23.5,12.8,30.01,North,1,0.0,0.0,63,0.00,CLR,OVC,0.00,WeatherDisplay:10.37,2013-01-13 02:48:00,
2013-01-12 20:53:00,23.5,12.4,30.01,North,1,0.0,0.0,62,0.00,CLR,OVC,0.00,WeatherDisplay:10.37,2013-01-13 02:53:00,
2013-01-12 20:58:00,23.5,12.4,30.00,North,1,0.0,0.0,62,0.00,CLR,OVC,0.00,WeatherDisplay:10.37,2013-01-13 02:58:00,
2013-01-12 21:03:00,23.4,12.2,30.01,North,1,0.0,0.0,62,0.00,CLR,OVC,0.00,WeatherDisplay:10.37,2013-01-13 03:03:00,
2013-01-12 21:08:00,23.5,12.4,30.01,North,1,0.0,0.0,62,0.00,CLR,OVC,0.00,WeatherDisplay:10.37,2013-01-13 03:08:00,
2013-01-12 21:13:00,23.5,12.4,30.01,North,1,0.0,0.0,62,0.00,CLR,OVC,0.00,WeatherDisplay:10.37,2013-01-13 03:13:00,
2013-01-12 21:18:00,23.5,12.4,30.01,North,1,0.0,0.0,62,0.00,CLR,OVC,0.00,WeatherDisplay:10.37,2013-01-13 03:18:00,
2013-01-12 21:23:00,23.5,12.4,30.01,North,1,0.0,0.0,62,0.00,CLR,OVC,0.00,WeatherDisplay:10.37,2013-01-13 03:23:00,
2013-01-12 21:28:00,23.5,12.1,30.01,North,1,0.0,0.0,61,0.00,CLR,OVC,0.00,WeatherDisplay:10.37,2013-01-13 03:28:00,
2013-01-12 21:33:00,23.5,12.1,30.01,North,1,0.0,0.0,61,0.00,CLR,OVC,0.00,WeatherDisplay:10.37,2013-01-13 03:33:00,
2013-01-12 21:38:00,23.5,11.7,30.01,North,1,0.0,0.0,60,0.00,CLR,OVC,0.00,WeatherDisplay:10.37,2013-01-13 03:38:00,
2013-01-12 21:43:00,23.5,11.7,30.01,North,1,0.0,0.0,60,0.00,CLR,OVC,0.00,WeatherDisplay:10.37,2013-01-13 03:43:00,
2013-01-12 21:48:00,23.5,11.7,30.01,North,1,0.0,0.0,60,0.00,CLR,OVC,0.00,WeatherDisplay:10.37,2013-01-13 03:48:00,
2013-01-12 21:53:00,23.5,11.3,30.01,North,1,0.0,0.0,59,0.00,CLR,OVC,0.00,WeatherDisplay:10.37,2013-01-13 03:53:00,
2013-01-12 21:58:00,23.4,11.1,30.01,North,1,0.0,0.0,59,0.00,CLR,OVC,0.00,WeatherDisplay:10.37,2013-01-13 03:58:00,
2013-01-12 22:03:00,23.2,11.0,30.00,North,1,0.0,0.0,59,0.00,CLR,OVC,0.00,WeatherDisplay:10.37,2013-01-13 04:03:00,
2013-01-12 22:08:00,23.2,11.0,29.99,North,1,0.0,0.0,59,0.00,CLR,OVC,0.00,WeatherDisplay:10.37,2013-01-13 04:08:00,
2013-01-12 22:13:00,23.2,11.0,30.01,North,1,0.0,0.0,59,0.00,CLR,OVC,0.00,WeatherDisplay:10.37,2013-01-13 04:13:00,
2013-01-12 22:18:00,23.0,10.8,30.01,North,1,0.0,0.0,59,0.00,CLR,OVC,0.00,WeatherDisplay:10.37,2013-01-13 04:18:00,
2013-01-12 22:23:00,23.0,10.8,30.01,North,1,0.0,0.0,59,0.00,CLR,OVC,0.00,WeatherDisplay:10.37,2013-01-13 04:23:00,
2013-01-12 22:28:00,22.8,10.6,30.02,North,1,0.0,0.0,59,0.00,CLR,OVC,0.00,WeatherDisplay:10.37,2013-01-13 04:28:00,
2013-01-12 22:33:00,22.6,10.4,30.02,North,1,0.0,0.0,59,0.00,CLR,OVC,0.00,WeatherDisplay:10.37,2013-01-13 04:33:00,
2013-01-12 22:38:00,22.6,10.4,30.02,North,1,0.0,0.0,59,0.00,CLR,OVC,0.00,WeatherDisplay:10.37,2013-01-13 04:38:00,
2013-01-12 22:43:00,22.6,10.4,30.02,North,1,0.0,0.0,59,0.00,CLR,OVC,0.00,WeatherDisplay:10.37,2013-01-13 04:43:00,
2013-01-12 22:48:00,22.6,10.4,30.02,North,1,0.0,0.0,59,0.00,CLR,OVC,0.00,WeatherDisplay:10.37,2013-01-13 04:48:00,
2013-01-12 22:53:00,22.6,10.4,30.01,North,1,0.0,0.0,59,0.00,CLR,OVC,0.00,WeatherDisplay:10.37,2013-01-13 04:53:00,
2013-01-12 22:58:00,22.3,10.1,30.02,North,1,0.0,0.0,59,0.00,CLR,OVC,0.00,WeatherDisplay:10.37,2013-01-13 04:58:00,
2013-01-12 23:03:00,22.3,10.1,30.02,North,1,0.0,0.0,59,0.00,CLR,OVC,0.00,WeatherDisplay:10.37,2013-01-13 05:03:00,
2013-01-12 23:08:00,22.1,9.6,30.03,North,1,0.0,0.0,58,0.00,CLR,OVC,0.00,WeatherDisplay:10.37,2013-01-13 05:08:00,
2013-01-12 23:13:00,21.9,9.4,30.03,North,1,0.0,0.0,58,0.00,CLR,OVC,0.00,WeatherDisplay:10.37,2013-01-13 05:13:00,
2013-01-12 23:18:00,21.7,9.2,30.02,North,1,0.0,0.0,58,0.00,CLR,OVC,0.00,WeatherDisplay:10.37,2013-01-13 05:18:00,
2013-01-12 23:23:00,21.6,9.0,30.04,North,1,0.0,0.0,58,0.00,CLR,OVC,0.00,WeatherDisplay:10.37,2013-01-13 05:23:00,
2013-01-12 23:28:00,21.4,9.3,30.04,North,1,0.0,0.0,59,0.00,CLR,OVC,0.00,WeatherDisplay:10.37,2013-01-13 05:28:00,
2013-01-12 23:33:00,21.2,9.1,30.04,North,1,0.0,0.0,59,0.00,CLR,OVC,0.00,WeatherDisplay:10.37,2013-01-13 05:33:00,
2013-01-12 23:38:00,21.0,8.9,30.04,North,1,0.0,0.0,59,0.00,CLR,OVC,0.00,WeatherDisplay:10.37,2013-01-13 05:38:00,
2013-01-12 23:43:00,21.0,8.9,30.04,North,1,0.0,0.0,59,0.00,CLR,OVC,0.00,WeatherDisplay:10.37,2013-01-13 05:43:00,
2013-01-12 23:48:00,20.8,8.7,30.04,North,1,0.0,0.0,59,0.00,CLR,OVC,0.00,WeatherDisplay:10.37,2013-01-13 05:48:00,
2013-01-12 23:53:00,20.8,8.7,30.04,North,1,0.0,0.0,59,0.00,CLR,OVC,0.00,WeatherDisplay:10.37,2013-01-13 05:53:00,
2013-01-12 23:58:00,20.7,8.6,30.03,North,1,0.0,0.0,59,0.00,CLR,OVC,0.00,WeatherDisplay:10.37,2013-01-13 05:58:00,